Pagina principale
METAR-TAF:

METAR-TAF

Aeroporti :

Doylestown Airport

Doylestown, Pennsylvania, Stati Uniti

latitudine: 40-19-48N, longitudine: 075-07-21W, altezza: 120 m

Osservazione

Il bollettino è stato emesso 25 minuti fa, alle 07:54 UTC
Vento calmo
Temperature 22°C
Umidità 94%
Pressione 1017 hPa
Visibilità: 16.1 km
Cielo sereno

METAR: KDYL 160754Z AUTO 00000KT 10SM CLR 22/21 A3002 RMK AO2 SLP159 T02170206

Ora: 04:19 (08:19 UTC)


TAF: mancante

Osservazioni e previsioni meteorologiche di più di 4000 aeroporti (messaggi METAR e TAF).

Le stazioni disponibili sono rappresentate dai dischi gialli e rossi sulla carta.

Puntare il mouse per vedere il nome della stazione.

Clicca sopra per visualizzare le osservazioni e previsioni meteorologiche.

Per cambiare la mappa : fare clic sui pulsanti verdi con una croce nera per ingrandire, il pulsante verde con un trattino per diminuire, o sulla freccia verde per le mappe adiacenti.


METAR-TAF: